Flag for U.S.A. Weather past 2 weeks in Jacksonville, North Carolina, U.S.A.

Now
73 °F

Clear.


Feels Like: 72 °F
Forecast: 65 / 84 °F
Wind: 6 mph from Northeast

Location: Jacksonville - New River

Current Time: Jul 30, 2014 at 3:40:38 AM

Latest Report: Jul 30, 2014 at 2:56 AM


Visibility: 10 mi

Pressure: 29.98 "Hg

Humidity: 84%

Dew point: 68 °F

Location of JacksonvilleLocation

Historic Weather in Jacksonville — Graph

°F

Jacksonville temperature yesterday

Maximum temperature yesterday: 86 °F (at 3:56 PM)
Minimum temperature yesterday: 69 °F (at 6:56 AM)
Average temperature yesterday: 77 °F

Past Weeks' High & Low Weather Summary

 TemperatureHumidityPressure
High91 °F (Jul 24, 1:56 PM)100% (Jul 15, 3:56 PM)30.16 "Hg (Jul 15, 3:56 PM)
Low68 °F (Jul 19, 5:56 AM)46% (Jul 17, 5:56 PM)29.74 "Hg (Jul 28, 4:56 PM)
Average78 °F81%29.98 "Hg
* Reported Jul 15 2:56 AM — Jul 30 2:56 AM, Jacksonville, Weather by CustomWeather, © 2014

Note: Actual official high and low records may vary slightly from our data, if they occured in-between our weather recording intervals... More about our weather records

Advertising

Jacksonville weather history for previous 24 hours

 ConditionsComfort  
Time TempWeatherWind HumidityBarometerVisibility
2:56 AM
Jul 30
73 °FClear.6 mph84%29.98 "Hg10 mi
1:56 AM74 °FClear.8 mph82%29.97 "Hg10 mi
12:56 AM73 °FPassing clouds.7 mph84%29.98 "Hg10 mi
11:56 PM
Jul 29
74 °FMostly cloudy.6 mph79%29.99 "Hg10 mi
10:56 PM76 °FPassing clouds.8 mph67%29.99 "Hg10 mi
9:56 PM75 °FPassing clouds.6 mph66%29.97 "Hg10 mi
8:56 PM77 °FPartly sunny.7 mph64%29.95 "Hg10 mi
7:56 PM79 °FSunny.8 mph60%29.93 "Hg10 mi
6:56 PM83 °FScattered clouds.13 mph53%29.91 "Hg10 mi
5:56 PM85 °FMostly cloudy.10 mph50%29.91 "Hg10 mi
4:56 PM86 °FBroken clouds.8 mph46%29.90 "Hg10 mi
3:56 PM86 °FPartly sunny.5 mph46%29.90 "Hg10 mi
2:56 PM85 °FPartly sunny.8 mph50%29.90 "Hg10 mi
1:56 PM83 °FScattered clouds.7 mph53%29.91 "Hg10 mi
12:56 PM82 °FSunny.7 mph51%29.92 "Hg10 mi
11:56 AM80 °FSunny.6 mph56%29.92 "Hg10 mi
10:56 AM78 °FScattered clouds.10 mph60%29.91 "Hg10 mi
9:56 AM76 °FSunny.9 mph64%29.90 "Hg10 mi
8:56 AM75 °FScattered clouds.9 mph66%29.91 "Hg10 mi
7:56 AM71 °FPassing clouds.9 mph73%29.90 "Hg10 mi
6:56 AM69 °FPassing clouds.6 mph79%29.90 "Hg10 mi
5:56 AM70 °FPassing clouds.5 mph76%29.88 "Hg10 mi
4:56 AM71 °FPassing clouds.7 mph76%29.86 "Hg10 mi
3:56 AM72 °FPassing clouds.9 mph76%29.85 "Hg10 mi
Weather by CustomWeather, © 2014

See weather overviewHow to use our weather pages